Home   Weather   Oklahoma City   Past weeks

Flag for USA Past Weather in Oklahoma City, Oklahoma, USA — Yesterday and Last 2 Weeks

72 °F


Feels Like: 77 °F
Forecast: 50 / 77 °F
Wind: 15 mph from Southwest

Location: Will Rogers World Airport

Current Time: Oct 22, 2016 at 12:56:28 PM

Latest Report: Oct 22, 2016 at 11:52 AM

Visibility: 10 mi

Pressure: 30.10 "Hg

Humidity: 34%

Dew Point: 42 °F

Location of Oklahoma CityLocation

Past Weather in Oklahoma City — Graph


Oklahoma City Temperature Yesterday

Maximum temperature yesterday: 70 °F (at 3:52 PM)
Minimum temperature yesterday: 45 °F (at 5:52 AM)
Average temperature yesterday: 55 °F

High & Low Weather Summary for the Past Weeks

High89 °F (Oct 17, 2:52 PM)97% (Oct 14, 5:52 AM)30.34 "Hg (Oct 14, 5:52 AM)
Low45 °F (Oct 21, 5:52 AM)21% (Oct 8, 4:52 PM)29.50 "Hg (Oct 17, 5:52 PM)
Average65 °F63%30.04 "Hg
* Reported Oct 7 10:52 AM — Oct 22 10:52 AM, Oklahoma City, Weather by CustomWeather, © 2016

Note: Actual official high and low records may vary slightly from our data, if they occured in-between our weather recording intervals... More about our weather records


Oklahoma City Weather History for the Previous 24 Hours

Scroll right to see more
Time TempWeatherWind HumidityBarometerVisibility
10:52 AM
Sat, Oct 22
68 °FSunny.14 mph39%30.11 "Hg10 mi
9:52 AM60 °FSunny.12 mph62%30.12 "Hg10 mi
8:52 AM51 °FSunny.9 mph83%30.11 "Hg10 mi
7:52 AM46 °FSunny.6 mph86%30.10 "Hg10 mi
6:52 AM46 °FClear.7 mph86%30.09 "Hg10 mi
5:52 AM46 °FClear.7 mph86%30.08 "Hg10 mi
4:52 AM46 °FClear.7 mph89%30.08 "Hg10 mi
3:52 AM47 °FClear.8 mph86%30.09 "Hg10 mi
2:52 AM47 °FClear.8 mph86%30.09 "Hg10 mi
1:52 AM48 °FClear.7 mph83%30.10 "Hg10 mi
12:52 AM49 °FClear.8 mph84%30.10 "Hg10 mi
11:52 PM
Fri, Oct 21
50 °FClear.6 mph80%30.10 "Hg10 mi
10:52 PM49 °FClear.8 mph84%30.11 "Hg10 mi
9:52 PM52 °FClear.8 mph72%30.11 "Hg10 mi
8:52 PM53 °FClear.7 mph66%30.14 "Hg10 mi
7:52 PM54 °FPassing clouds.7 mph59%30.13 "Hg10 mi
6:52 PM58 °FPassing clouds.9 mph51%30.13 "Hg10 mi
5:52 PM67 °FPassing clouds.12 mph36%30.12 "Hg10 mi
4:52 PM70 °FScattered clouds.12 mph32%30.12 "Hg10 mi
3:52 PM70 °FScattered clouds.12 mph32%30.13 "Hg10 mi
2:52 PM69 °FScattered clouds.9 mph35%30.16 "Hg10 mi
1:52 PM67 °FScattered clouds.6 mph35%30.20 "Hg10 mi
12:52 PM65 °FPassing clouds.No wind39%30.24 "Hg10 mi
Weather by CustomWeather, © 2016

See weather overviewHow to use our weather pages